Regional Weather Roundup
Issued by NWS

Home | Current Version | Previous Version | Graphics & Text | Print | Product List | Glossary On
Versions: 1 2 3 4 5 6 7 8 9 10 11 12 13 14 15 16 17 18 19 20 21 22 23 24 25 26 27 28 29 30 31 32 33 34 35 36 37 38 39 40 41 42 43 44 45 46 47 48 49 50
000
ASUS43 KBIS 020810
RWRND

NORTH DAKOTA REGIONAL WEATHER ROUNDUP
NATIONAL WEATHER SERVICE BISMARCK ND
300 AM CDT TUE SEP 02 2014

NOTE: "FAIR" INDICATES FEW OR NO CLOUDS BELOW 12,000 FEET WITH NO
SIGNIFICANT WEATHER AND/OR OBSTRUCTIONS TO VISIBILITY.


NDZ001>003-009>011-017-020900-
NORTHWEST NORTH DAKOTA

CITY           SKY/WX    TMP DP  RH WIND       PRES   REMARKS
WILLISTON      LGT RAIN  56  51  84 SW6       29.80F
MINOT          MOCLDY    55  48  77 SW8       29.78F
MINOT AFB      CLOUDY    53  50  90 SW6       29.78F
$$

NDZ018>021-031>035-040>046-020900-
SOUTHWEST NORTH DAKOTA

CITY           SKY/WX    TMP DP  RH WIND       PRES   REMARKS
BISMARCK       PTCLDY    53  49  86 W5        29.86S
DICKINSON      PTCLDY    52  46  80 S9        29.85F
GARRISON         N/A     54  51  90 CALM      29.82F
HETTINGER ARPT PTCLDY    50  45  83 CALM      29.91F
$$

NDZ004>008-012>016-024-026-027-054-020900-
NORTHEAST NORTH DAKOTA

CITY           SKY/WX    TMP DP  RH WIND       PRES   REMARKS
GRAND FORKS    CLEAR     55  49  80 SW7       29.76R
GRND FRKS AFB  CLEAR     54  51  88 W7        29.77R
DEVILS LAKE    CLEAR     55  46  71 W8        29.78R
$$

NDZ022-023-025-028>030-036>039-047>053-020900-
SOUTHEAST NORTH DAKOTA

CITY           SKY/WX    TMP DP  RH WIND       PRES   REMARKS
FARGO          CLEAR     54  51  90 SW8       29.81S
JAMESTOWN      CLEAR     53  48  83 SW6       29.83S
$$



USA.gov is the U.S. government's official web portal to all federal, state and local government web resources and services.